Regional Weather Roundup
Issued by NWS Kansas City/Pleasant Hill, MO

Home | Current Version | Previous Version | Text Only | Print | Product List | Glossary On
Versions: 1 2 3 4 5 6 7 8 9 10 11 12 13 14 15 16 17 18 19 20 21 22 23 24 25 26 27 28 29 30 31 32 33 34 35 36 37 38 39 40 41 42 43 44 45 46 47 48 49 50
000
ASUS43 KEAX 240610
RWREAX

WEATHER ROUNDUP FOR EASTERN KANSAS AND NORTHWEST MISSOURI
NATIONAL WEATHER SERVICE KANSAS CITY/PLEASANT HILL MO
1200 AM CST WED JAN 24 2018

KSZ040-057-103>105-MOZ028-029-037-043-240700-
...KANSAS CITY METROPOLITAN AREA...

CITY           SKY/WX    TMP DP  RH WIND       PRES   REMARKS
K.C. INTL      PTCLDY    27  24  89 SW6       30.25S WCI  20
6HR MIN TEMP:  27; 6HR MAX TEMP:  30;

K.C. DOWNTOWN  CLOUDY    31  24  75 W3        30.27R
6HR MIN TEMP:  29; 6HR MAX TEMP:  34;

LEES SUMMIT    CLOUDY    29  25  85 W5        30.26S WCI  24
6HR MIN TEMP:  28; 6HR MAX TEMP:  32;

OLATHE - IXD   PTCLDY    25  23  92 SW3       30.27S
6HR MIN TEMP:  23; 6HR MAX TEMP:  30;

OLATHE - OJC   MOCLDY    27  24  89 W5        30.26S WCI  22
6HR MIN TEMP:  24; 6HR MAX TEMP:  31;

LAWRENCE       CLEAR     24  23  96 CALM      30.28R FOG

$$

MOZ001>008-011>017-020>025-030>033-038>040-044>046-053-054-240700-
...NORTHERN AND CENTRAL MISSOURI...

CITY           SKY/WX    TMP DP  RH WIND       PRES   REMARKS
ST. JOSEPH     CLEAR     25  25 100 CALM      30.26S
6HR MIN TEMP:  24; 6HR MAX TEMP:  30; 6HR PCP: TRACE;

MOSBY          PTCLDY    27  25  93 CALM      30.27S
WARRENSBURG    CLOUDY    27  25  93 SW3       30.28R
WHITEMAN AFB   PTCLDY    23  20  89 CALM      30.22F
6HR MIN TEMP:  23; 6HR MAX TEMP:  33;

CLINTON        MOCLDY    19  19 100 CALM      30.29S
SEDALIA        PTCLDY    27  23  85 SW3       30.27S
6HR MIN TEMP:  27; 6HR MAX TEMP:  33;

WARSAW         NOT AVBL
CHILLICOTHE      N/A     25  21  85 CALM      30.27S
6HR MIN TEMP:  24; 6HR MAX TEMP:  30;

KIRKSVILLE     CLOUDY    27  23  85 NW6       30.24S WCI  20
6HR MIN TEMP:  26; 6HR MAX TEMP:  28;


$$

MOZ041-047>049-056>058-063>065-088>090-097-240700-
...EASTERN AND SOUTHERN MISSOURI...

CITY           SKY/WX    TMP DP  RH WIND       PRES   REMARKS
ST. LOUIS INTL CLOUDY    33  25  72 W9        30.25S WCI  25
6HR MIN TEMP:  33; 6HR MAX TEMP:  36;

SPIRIT OF STL  CLOUDY    34  24  67 W6        30.26R WCI  29
COLUMBIA       PTCLDY    26  23  88 W5        30.25S WCI  20
JEFFERSON CITY CLEAR     28  25  88 CALM      30.28S
ROLLA          CLEAR     26  24  92 W7        30.25S WCI  18
OSAGE BEACH    CLEAR     24  22  91 SW5       30.28  WCI  18
SPRINGFIELD    CLEAR     28  22  78 W6        30.27S WCI  22
BRANSON        CLEAR     32  23  69 CALM      30.29S
JOPLIN         CLEAR     30  25  81 SW5       30.31R WCI  25
WEST PLAINS    CLEAR     27  24  89 SW6       30.27S WCI  20

$$

IAZ060-094-KSZ022-034>040-054-083-096-NEZ052-066-093-240700-
...KANSAS...SOUTHEAST NEBRASKA AND IOWA...

CITY           SKY/WX    TMP DP  RH WIND       PRES   REMARKS
TOPEKA         CLEAR     28  26  92 W3        30.28S
6HR MIN TEMP:  25; 6HR MAX TEMP:  33;

MANHATTAN      CLEAR     26  22  84 SW7       30.30R WCI  18
EMPORIA        CLEAR     28  23  81 W9        30.29S WCI  19
CHANUTE        CLEAR     24  19  81 W5        30.31R WCI  18
WICHITA        CLEAR     29  22  75 NW5       30.33R WCI  24
OMAHA          CLEAR     21  19  92 SE3       30.23S
LINCOLN        CLEAR     22  21  96 CALM      30.24S
FALLS CITY     CLEAR     26  23  88 CALM      30.24R
LAMONI         CLOUDY    25  21  85 W5        30.22S WCI  19
DES MOINES     CLOUDY    26  21  81 NW5       30.23R WCI  20

$$




USA.gov is the U.S. government's official web portal to all federal, state and local government web resources and services.